{"data":{"norad_id":45581,"epoch":"2026-09-19T13:16:19.175808Z","epoch_age_seconds":99941,"freshness":"FRESH","line1":"1 45581U 20025BC  26262.55299972  .00056278  00000+0  11113-2 0  9994","line2":"2 45581  53.1495 244.4657 0005945  72.7804 287.3854 15.46618981355352","mean_motion":15.46618981,"eccentricity":0.0005945,"inclination_deg":53.1495,"raan_deg":244.4657,"arg_perigee_deg":72.7804,"mean_anomaly_deg":287.3854,"bstar":0.0011113,"rev_number":35535,"period_min":93.106318860055,"perigee_km":422.57973596338,"apogee_km":430.67059818003,"semimajor_km":6804.7621670717,"source":"CELESTRAK","updated_at":"2026-09-20T09:00:38.448695Z"}}